Location: Goettingen
(51.5300°N, 9.9433°E)
Time: 05:49:51
(UTC+01:00)

ARIANE 6 FM1 Upper Stage - Visible Passes

Search period start: 15 January 2026 00:00
Search period end: 25 January 2026 00:00
Orbit: 522 x 610 km, 62.0° (Epoch: 14 January)

Date Brightness Start Highest point End Pass type
(mag) Time Alt. Az. Time Alt. Az. Time Alt. Az.
15 Jan 4.5 06:14:11 16° SSW 06:14:11 16° SSW 06:15:38 10° SSW visible
21 Jan 4.8 18:37:00 10° SSE 18:37:47 12° SE 18:37:47 12° SE visible
21 Jan 5.4 20:13:28 10° SW 20:13:51 12° SW 20:13:51 12° SW visible
22 Jan 4.2 18:36:11 10° SSE 18:38:41 19° SE 18:38:41 19° SE visible
22 Jan 5.1 20:13:41 10° SW 20:14:45 18° SW 20:14:45 18° SW visible
23 Jan 3.7 18:35:44 10° S 18:39:10 26° SE 18:39:30 26° ESE visible
23 Jan 4.9 20:13:58 10° WSW 20:15:33 22° WSW 20:15:33 22° WSW visible
24 Jan 3.3 18:35:30 10° SSW 18:39:14 36° SE 18:40:13 31° E visible
24 Jan 4.7 20:14:20 10° WSW 20:16:16 25° W 20:16:16 25° W visible
